Orbital Elements at Epoch 2459000.5 (2020-May-31.0) TDB
Reference: JPL 23 (heliocentric ecliptic J2000)
Element | Value | Uncertainty (1-sigma) | Units |
e | .1180866322885286 | 4.5101e-08 | |
a | 2.847270768807359 | 1.8185e-08 | au |
q | 2.511046152505328 | 1.3299e-07 | au |
i | 13.4652436090877 | 4.7899e-06 | deg |
node | 44.50124211285231 | 1.927e-05 | deg |
peri | 309.327684540511 | 2.6046e-05 | deg |
M | 272.9916203582248 | 1.7927e-05 | deg |
tp | 2459424.631141353841 (2021-Jul-29.13114135) | 8.8457e-05 | TDB |
period | 1754.856388729637 4.80 | 1.6812e-05 4.603e-08 | d yr |
n | .2051449920985321 | 1.9653e-09 | deg/d |
Q | 3.183495385109389 | 2.0332e-08 | au |
|
| | Orbit Determination Parameters
Additional Information
|